JAF2JW EBOS-LEMG

Flight info

Callsign JAF2JW
Flight time 2h 38m
Altitude 35000
Route FERDI UY50 CIV N872 MEDIL/N0459F350 DCT KOVIN DCT DUCRA UM728 RESMI UN857 DISAK DCT ARKIP DCT ARNAV DCT LMG DCT UVELI DCT OSMOB DCT ARVID DCT PPN DCT NOLSA N857 BAN DCT PINAR DCT CJN DCT INTAX DCT NASOS DCT ANZAN DCT BLN
Aircraft B38M/M-SDE1FGHILORVWXY/HB1

Departure

Time 2026-05-05 06:56
Airport Ostend-Bruges International Airport (EBOS)

Arrival

Time 2026-05-05 09:34
Airport Málaga-Costa del Sol Airport (LEMG)
Time Latitude Longitude Altitude Speed Heading
2026-05-05 06:39 51.20340 2.86984 17 ft 0 kts 345°
2026-05-05 06:48 51.20334 2.86987 16 ft 4 kts 348°
2026-05-05 06:48 51.20308 2.86995 16 ft 4 kts 348°
2026-05-05 06:49 51.20283 2.87007 18 ft 4 kts 339°
2026-05-05 06:49 51.20259 2.87025 16 ft 4 kts 331°
2026-05-05 06:49 51.20253 2.87030 16 ft 1 kts 331°
2026-05-05 06:51 51.20254 2.87027 16 ft 0 kts 315°
2026-05-05 06:51 51.20255 2.87013 17 ft 3 kts 269°
2026-05-05 06:52 51.20243 2.86920 17 ft 14 kts 258°
2026-05-05 06:52 51.20214 2.86747 17 ft 17 kts 238°
2026-05-05 06:52 51.20108 2.86695 17 ft 17 kts 185°
2026-05-05 06:52 51.20022 2.86603 18 ft 16 kts 252°
2026-05-05 06:53 51.19996 2.86423 18 ft 17 kts 256°
2026-05-05 06:53 51.19966 2.86231 18 ft 18 kts 256°
2026-05-05 06:53 51.19935 2.86027 17 ft 19 kts 256°
2026-05-05 06:53 51.19903 2.85812 19 ft 20 kts 257°
2026-05-05 06:54 51.19869 2.85587 17 ft 21 kts 257°
2026-05-05 06:54 51.19838 2.85377 18 ft 14 kts 252°
2026-05-05 06:54 51.19772 2.85272 19 ft 14 kts 204°
2026-05-05 06:54 51.19685 2.85286 16 ft 7 kts 153°
2026-05-05 06:55 51.19663 2.85318 19 ft 3 kts 109°
2026-05-05 06:55 51.19667 2.85360 16 ft 8 kts 77°
2026-05-05 06:55 51.19725 2.85743 19 ft 72 kts 76°
2026-05-05 06:55 51.19896 2.86878 17 ft 137 kts 76°
2026-05-05 06:56 51.20176 2.88606 160 ft 175 kts 73°
2026-05-05 06:56 51.20443 2.90437 1098 ft 164 kts 73°
2026-05-05 06:56 51.20710 2.92244 1794 ft 173 kts 73°
2026-05-05 06:56 51.21003 2.94205 2229 ft 192 kts 73°
2026-05-05 06:57 51.21332 2.96401 2607 ft 216 kts 74°
2026-05-05 06:57 51.21697 2.98863 3102 ft 233 kts 78°
2026-05-05 06:57 51.21620 3.01455 3917 ft 246 kts 105°
2026-05-05 06:57 51.20732 3.03896 4467 ft 266 kts 127°
2026-05-05 06:58 51.19593 3.06190 5303 ft 267 kts 126°
2026-05-05 06:58 51.18439 3.08547 6153 ft 273 kts 126°
2026-05-05 06:58 51.17264 3.10952 7000 ft 276 kts 127°
2026-05-05 06:58 51.16075 3.13386 7803 ft 280 kts 127°
2026-05-05 06:59 51.14867 3.15858 8591 ft 284 kts 127°
2026-05-05 06:59 51.13644 3.18359 9359 ft 288 kts 127°
2026-05-05 06:59 51.12401 3.20897 10113 ft 292 kts 127°
2026-05-05 06:59 51.11134 3.23482 10535 ft 309 kts 127°
2026-05-05 07:00 51.09772 3.26260 10825 ft 328 kts 127°
2026-05-05 07:00 51.08318 3.29220 11078 ft 349 kts 127°
2026-05-05 07:00 51.06789 3.32330 11359 ft 364 kts 127°
2026-05-05 07:00 51.05201 3.35555 11827 ft 373 kts 128°
2026-05-05 07:01 51.03593 3.38817 12535 ft 375 kts 128°
2026-05-05 07:01 51.01976 3.42094 13138 ft 380 kts 128°
2026-05-05 07:01 51.00340 3.45405 13789 ft 382 kts 128°
2026-05-05 07:01 50.98684 3.48752 14415 ft 386 kts 128°
2026-05-05 07:02 50.97016 3.52119 15053 ft 390 kts 128°
2026-05-05 07:02 50.95355 3.55468 15653 ft 393 kts 128°
2026-05-05 07:02 50.93656 3.58890 16224 ft 396 kts 128°
2026-05-05 07:02 50.91819 3.62150 16786 ft 398 kts 141°
2026-05-05 07:03 50.89488 3.64518 17300 ft 400 kts 152°
2026-05-05 07:03 50.86978 3.66432 17714 ft 402 kts 162°
2026-05-05 07:03 50.84239 3.67209 18205 ft 402 kts 179°
2026-05-05 07:03 50.81448 3.66736 18605 ft 404 kts 194°
2026-05-05 07:04 50.78736 3.65516 19027 ft 406 kts 196°
2026-05-05 07:04 50.76004 3.64311 19465 ft 408 kts 195°
2026-05-05 07:04 50.73251 3.63114 19878 ft 410 kts 195°
2026-05-05 07:04 50.70492 3.61921 20258 ft 413 kts 195°
2026-05-05 07:05 50.67706 3.60718 20647 ft 415 kts 195°
2026-05-05 07:05 50.64946 3.59529 21041 ft 416 kts 195°
2026-05-05 07:05 50.62134 3.58319 21403 ft 419 kts 195°
2026-05-05 07:05 50.59317 3.57109 21755 ft 421 kts 195°
2026-05-05 07:06 50.56479 3.55892 22109 ft 423 kts 195°
2026-05-05 07:06 50.53628 3.54670 22459 ft 425 kts 195°
2026-05-05 07:06 50.50771 3.53445 22817 ft 427 kts 195°
2026-05-05 07:06 50.47889 3.52212 23148 ft 429 kts 195°
2026-05-05 07:07 50.45001 3.50979 23472 ft 431 kts 195°
2026-05-05 07:07 50.42106 3.49744 23809 ft 432 kts 195°
2026-05-05 07:07 50.39229 3.48518 24104 ft 434 kts 195°
2026-05-05 07:07 50.36307 3.47275 24415 ft 436 kts 195°
2026-05-05 07:08 50.33378 3.46028 24743 ft 437 kts 195°
2026-05-05 07:08 50.30429 3.44777 25084 ft 437 kts 195°
2026-05-05 07:08 50.27493 3.43532 25405 ft 438 kts 195°
2026-05-05 07:08 50.24542 3.42283 25723 ft 439 kts 195°
2026-05-05 07:09 50.21593 3.41036 26024 ft 439 kts 195°
2026-05-05 07:09 50.18634 3.39785 26316 ft 440 kts 195°
2026-05-05 07:09 50.15706 3.38551 26559 ft 442 kts 195°
2026-05-05 07:09 50.12735 3.37298 26855 ft 442 kts 195°
2026-05-05 07:10 50.09765 3.36048 27127 ft 442 kts 195°
2026-05-05 07:10 50.06786 3.34796 27392 ft 443 kts 196°
2026-05-05 07:10 50.03808 3.33545 27648 ft 444 kts 196°
2026-05-05 07:10 50.00820 3.32293 27879 ft 445 kts 196°
2026-05-05 07:11 49.97846 3.31047 28148 ft 445 kts 196°
2026-05-05 07:11 49.94847 3.29793 28503 ft 442 kts 195°
2026-05-05 07:11 49.91888 3.28555 28909 ft 439 kts 195°
2026-05-05 07:11 49.88953 3.27328 29274 ft 435 kts 195°
2026-05-05 07:12 49.86041 3.26113 29636 ft 433 kts 195°
2026-05-05 07:12 49.83140 3.24905 29999 ft 430 kts 195°
2026-05-05 07:12 49.80286 3.23718 30339 ft 427 kts 195°
2026-05-05 07:12 49.77422 3.22529 30647 ft 425 kts 195°
2026-05-05 07:13 49.74565 3.21344 30928 ft 424 kts 195°
2026-05-05 07:13 49.71721 3.20165 31225 ft 423 kts 195°
2026-05-05 07:13 49.68873 3.18988 31488 ft 422 kts 195°
2026-05-05 07:13 49.66042 3.17818 31770 ft 420 kts 195°
2026-05-05 07:14 49.63221 3.16654 32025 ft 418 kts 195°
2026-05-05 07:14 49.60407 3.15495 32247 ft 418 kts 195°
2026-05-05 07:14 49.57602 3.14340 32495 ft 416 kts 195°
2026-05-05 07:14 49.54805 3.13191 32703 ft 415 kts 195°
2026-05-05 07:15 49.52011 3.12044 32946 ft 414 kts 195°
2026-05-05 07:15 49.49255 3.10794 33169 ft 412 kts 203°
2026-05-05 07:15 49.46799 3.08649 33396 ft 411 kts 212°
2026-05-05 07:15 49.44392 3.06266 33546 ft 411 kts 211°
2026-05-05 07:16 49.41986 3.03878 33721 ft 411 kts 211°
2026-05-05 07:16 49.39593 3.01477 33895 ft 411 kts 212°
2026-05-05 07:16 49.37207 2.99068 34085 ft 410 kts 212°
2026-05-05 07:16 49.34826 2.96659 34254 ft 410 kts 212°
2026-05-05 07:17 49.32444 2.94250 34361 ft 411 kts 212°
2026-05-05 07:17 49.30054 2.91833 34465 ft 412 kts 212°
2026-05-05 07:17 49.27658 2.89414 34565 ft 413 kts 212°
2026-05-05 07:17 49.25257 2.86993 34691 ft 413 kts 212°
2026-05-05 07:18 49.22952 2.84671 34801 ft 413 kts 212°
2026-05-05 07:18 49.18129 2.79822 34892 ft 415 kts 211°
2026-05-05 07:19 49.13301 2.74979 34887 ft 415 kts 211°
2026-05-05 07:19 49.08465 2.70139 34890 ft 415 kts 211°
2026-05-05 07:20 49.03654 2.65336 34892 ft 415 kts 211°
2026-05-05 07:20 48.98816 2.60515 34882 ft 416 kts 211°
2026-05-05 07:21 48.93964 2.55695 34886 ft 417 kts 211°
2026-05-05 07:21 48.89096 2.50868 34882 ft 417 kts 211°
2026-05-05 07:22 48.84253 2.46078 34880 ft 418 kts 211°
2026-05-05 07:22 48.79374 2.41264 34867 ft 418 kts 211°
2026-05-05 07:23 48.74497 2.36463 34861 ft 418 kts 211°
2026-05-05 07:23 48.69607 2.31659 34863 ft 419 kts 210°
2026-05-05 07:24 48.65532 2.27667 34859 ft 419 kts 210°
2026-05-05 07:24 48.60618 2.22859 34863 ft 421 kts 210°
2026-05-05 07:25 48.55442 2.18957 34856 ft 414 kts 192°
2026-05-05 07:25 48.49811 2.16977 34850 ft 416 kts 192°
2026-05-05 07:26 48.44181 2.15103 34847 ft 417 kts 191°
2026-05-05 07:26 48.38512 2.13269 34850 ft 417 kts 191°
2026-05-05 07:27 48.32835 2.11444 34846 ft 417 kts 191°
2026-05-05 07:27 48.27113 2.10452 34836 ft 414 kts 173°
2026-05-05 07:28 48.21385 2.11531 34841 ft 416 kts 173°
2026-05-05 07:28 48.15625 2.12692 34834 ft 416 kts 172°
2026-05-05 07:28 48.12737 2.12948 34819 ft 415 kts 185°
2026-05-05 07:29 48.09911 2.12411 34833 ft 416 kts 185°
2026-05-05 07:29 48.04148 2.11387 34833 ft 417 kts 186°
2026-05-05 07:30 47.98390 2.10298 34832 ft 417 kts 186°
2026-05-05 07:30 47.89750 2.08650 34834 ft 417 kts 186°
2026-05-05 07:31 47.83990 2.07553 34830 ft 417 kts 186°
2026-05-05 07:31 47.78229 2.06458 34833 ft 417 kts 186°
2026-05-05 07:32 47.72509 2.05373 34831 ft 417 kts 186°
2026-05-05 07:32 47.66745 2.04283 34830 ft 417 kts 186°
2026-05-05 07:33 47.61128 2.02267 34848 ft 419 kts 200°
2026-05-05 07:33 47.55666 1.99164 34838 ft 420 kts 199°
2026-05-05 07:34 47.50204 1.96018 34835 ft 422 kts 199°
2026-05-05 07:34 47.44733 1.92857 34831 ft 422 kts 199°
2026-05-05 07:35 47.39290 1.89717 34833 ft 422 kts 199°
2026-05-05 07:35 47.33804 1.86560 34833 ft 423 kts 199°
2026-05-05 07:36 47.28307 1.83403 34835 ft 424 kts 199°
2026-05-05 07:36 47.22812 1.80254 34832 ft 424 kts 199°
2026-05-05 07:37 47.17329 1.77151 34832 ft 424 kts 199°
2026-05-05 07:37 47.11807 1.74038 34835 ft 425 kts 199°
2026-05-05 07:38 47.06274 1.70925 34844 ft 426 kts 199°
2026-05-05 07:38 47.00729 1.67812 34850 ft 426 kts 199°
2026-05-05 07:39 46.95185 1.64707 34851 ft 426 kts 199°
2026-05-05 07:39 46.89681 1.61630 34853 ft 426 kts 199°
2026-05-05 07:40 46.84129 1.58535 34860 ft 427 kts 199°
2026-05-05 07:40 46.78572 1.55443 34862 ft 427 kts 199°
2026-05-05 07:41 46.73012 1.52356 34859 ft 427 kts 199°
2026-05-05 07:41 46.67439 1.49269 34862 ft 428 kts 199°
2026-05-05 07:42 46.61868 1.46190 34859 ft 428 kts 199°
2026-05-05 07:42 46.56295 1.43116 34864 ft 428 kts 199°
2026-05-05 07:43 46.50718 1.40047 34876 ft 428 kts 199°
2026-05-05 07:43 46.45179 1.37006 34885 ft 429 kts 199°
2026-05-05 07:44 46.39581 1.33939 34887 ft 430 kts 199°
2026-05-05 07:44 46.33985 1.30880 34891 ft 429 kts 199°
2026-05-05 07:45 46.28392 1.27828 34897 ft 430 kts 199°
2026-05-05 07:45 46.22798 1.24784 34900 ft 429 kts 199°
2026-05-05 07:46 46.17234 1.21762 34908 ft 430 kts 199°
2026-05-05 07:46 46.11632 1.18726 34906 ft 430 kts 199°
2026-05-05 07:47 46.06023 1.15693 34907 ft 430 kts 199°
2026-05-05 07:47 46.00406 1.12662 34908 ft 431 kts 199°
2026-05-05 07:48 45.94792 1.09639 34911 ft 431 kts 199°
2026-05-05 07:48 45.89231 1.06650 34908 ft 429 kts 199°
2026-05-05 07:49 45.83631 1.03643 34913 ft 430 kts 200°
2026-05-05 07:49 45.81010 1.01619 34902 ft 431 kts 216°
2026-05-05 07:49 45.78668 0.98899 34915 ft 433 kts 217°
2026-05-05 07:50 45.73998 0.93426 34916 ft 434 kts 218°
2026-05-05 07:50 45.69349 0.87888 34917 ft 434 kts 218°
2026-05-05 07:51 45.64710 0.82354 34928 ft 434 kts 218°
2026-05-05 07:51 45.61523 0.78560 34926 ft 434 kts 218°
2026-05-05 07:52 45.56881 0.73041 34936 ft 435 kts 218°
2026-05-05 07:52 45.52227 0.67521 34931 ft 435 kts 218°
2026-05-05 07:53 45.47572 0.62012 34939 ft 435 kts 218°
2026-05-05 07:53 45.42918 0.56515 34935 ft 434 kts 218°
2026-05-05 07:54 45.38261 0.51028 34944 ft 435 kts 218°
2026-05-05 07:54 45.33595 0.45544 34932 ft 434 kts 218°
2026-05-05 07:55 45.28937 0.40078 34934 ft 434 kts 218°
2026-05-05 07:55 45.24304 0.34656 34930 ft 434 kts 218°
2026-05-05 07:56 45.19644 0.29214 34948 ft 434 kts 218°
2026-05-05 07:56 45.14974 0.23771 34955 ft 434 kts 218°
2026-05-05 07:57 45.10308 0.18346 34952 ft 433 kts 218°
2026-05-05 07:57 45.05641 0.12928 34950 ft 433 kts 218°
2026-05-05 07:58 45.00974 0.07528 34961 ft 433 kts 218°
2026-05-05 07:58 44.96349 0.02186 34962 ft 432 kts 218°
2026-05-05 07:59 44.91685 -0.03192 34952 ft 434 kts 218°
2026-05-05 07:59 44.86982 -0.08600 34965 ft 438 kts 218°
2026-05-05 08:00 44.82224 -0.14060 34963 ft 443 kts 218°
2026-05-05 08:00 44.77439 -0.19540 34966 ft 443 kts 218°
2026-05-05 08:01 44.72653 -0.25008 34971 ft 443 kts 218°
2026-05-05 08:01 44.67863 -0.30470 34973 ft 443 kts 218°
2026-05-05 08:02 44.62809 -0.35341 34978 ft 441 kts 207°
2026-05-05 08:02 44.57414 -0.39342 34973 ft 442 kts 208°
2026-05-05 08:03 44.51962 -0.43357 34971 ft 442 kts 208°
2026-05-05 08:03 44.46516 -0.47352 34972 ft 442 kts 208°
2026-05-05 08:04 44.41060 -0.51346 34977 ft 441 kts 208°
2026-05-05 08:04 44.35618 -0.55320 34980 ft 441 kts 208°
2026-05-05 08:05 44.30218 -0.59257 34980 ft 441 kts 208°
2026-05-05 08:05 44.24766 -0.63221 34983 ft 441 kts 208°
2026-05-05 08:06 44.19324 -0.67171 34999 ft 440 kts 208°
2026-05-05 08:06 44.13886 -0.71110 35001 ft 440 kts 208°
2026-05-05 08:07 44.08445 -0.75042 34987 ft 440 kts 208°
2026-05-05 08:07 44.03011 -0.78962 34994 ft 440 kts 208°
2026-05-05 08:08 43.97575 -0.82874 34989 ft 440 kts 208°
2026-05-05 08:08 43.92224 -0.86718 34986 ft 432 kts 209°
2026-05-05 08:09 43.86893 -0.90538 34989 ft 432 kts 209°
2026-05-05 08:09 43.81542 -0.94367 34997 ft 432 kts 209°
2026-05-05 08:10 43.76198 -0.98182 34986 ft 432 kts 209°
2026-05-05 08:10 43.70888 -1.01965 34986 ft 432 kts 209°
2026-05-05 08:11 43.65543 -1.05765 34988 ft 432 kts 209°
2026-05-05 08:11 43.60187 -1.09566 34986 ft 432 kts 209°
2026-05-05 08:12 43.54843 -1.13351 34993 ft 431 kts 209°
2026-05-05 08:12 43.49549 -1.17092 34995 ft 431 kts 209°
2026-05-05 08:13 43.44201 -1.20864 35012 ft 430 kts 209°
2026-05-05 08:13 43.39767 -1.23985 35010 ft 430 kts 209°
2026-05-05 08:14 43.34430 -1.27737 35011 ft 430 kts 209°
2026-05-05 08:14 43.29092 -1.31481 35016 ft 430 kts 209°
2026-05-05 08:15 43.23813 -1.35175 35004 ft 429 kts 209°
2026-05-05 08:15 43.18460 -1.38917 35012 ft 429 kts 210°
2026-05-05 08:16 43.13179 -1.42601 35014 ft 427 kts 210°
2026-05-05 08:16 43.07890 -1.46283 35010 ft 426 kts 210°
2026-05-05 08:17 43.02615 -1.49957 35009 ft 425 kts 210°
2026-05-05 08:17 42.97346 -1.53621 34998 ft 424 kts 210°
2026-05-05 08:18 42.92094 -1.57265 35000 ft 422 kts 210°
2026-05-05 08:18 42.86894 -1.60867 35005 ft 421 kts 210°
2026-05-05 08:19 42.81670 -1.64480 34998 ft 420 kts 210°
2026-05-05 08:19 42.76456 -1.68078 34984 ft 419 kts 211°
2026-05-05 08:20 42.71250 -1.71619 35012 ft 418 kts 210°
2026-05-05 08:20 42.66077 -1.75105 35004 ft 416 kts 211°
2026-05-05 08:21 42.60893 -1.78593 35000 ft 415 kts 211°
2026-05-05 08:21 42.55721 -1.82067 34997 ft 415 kts 211°
2026-05-05 08:22 42.50554 -1.85530 34997 ft 413 kts 211°
2026-05-05 08:22 42.45387 -1.88988 34999 ft 413 kts 211°
2026-05-05 08:23 42.40270 -1.92403 35007 ft 412 kts 211°
2026-05-05 08:23 42.35130 -1.95827 35001 ft 411 kts 211°
2026-05-05 08:24 42.29989 -1.99251 35005 ft 411 kts 211°
2026-05-05 08:24 42.24860 -2.02654 35007 ft 411 kts 211°
2026-05-05 08:25 42.19723 -2.06051 35018 ft 411 kts 211°
2026-05-05 08:25 42.14596 -2.09439 35017 ft 411 kts 211°
2026-05-05 08:26 42.09484 -2.12812 35005 ft 410 kts 211°
2026-05-05 08:26 42.04351 -2.16193 35012 ft 411 kts 211°
2026-05-05 08:27 41.99212 -2.19572 35019 ft 411 kts 211°
2026-05-05 08:27 41.94112 -2.22918 35010 ft 410 kts 211°
2026-05-05 08:28 41.88987 -2.26276 35012 ft 410 kts 211°
2026-05-05 08:28 41.83865 -2.29625 35008 ft 410 kts 211°
2026-05-05 08:29 41.78719 -2.32984 35006 ft 410 kts 211°
2026-05-05 08:30 41.71040 -2.37986 35010 ft 410 kts 211°
2026-05-05 08:30 41.65896 -2.41328 35012 ft 411 kts 211°
2026-05-05 08:31 41.60755 -2.44664 35007 ft 412 kts 211°
2026-05-05 08:31 41.55583 -2.48014 35003 ft 412 kts 211°
2026-05-05 08:32 41.50429 -2.51345 35001 ft 411 kts 211°
2026-05-05 08:32 41.45326 -2.54636 34994 ft 411 kts 211°
2026-05-05 08:33 41.40161 -2.57962 34994 ft 411 kts 211°
2026-05-05 08:33 41.35003 -2.61273 35007 ft 412 kts 210°
2026-05-05 08:33 41.32271 -2.62423 34983 ft 422 kts 195°
2026-05-05 08:34 41.29296 -2.62555 35009 ft 434 kts 184°
2026-05-05 08:34 41.23197 -2.62126 35000 ft 436 kts 184°
2026-05-05 08:35 41.17170 -2.61617 34999 ft 437 kts 184°
2026-05-05 08:35 41.11088 -2.61077 34995 ft 437 kts 184°
2026-05-05 08:36 41.05021 -2.60538 34991 ft 436 kts 184°
2026-05-05 08:36 40.98998 -2.60002 34998 ft 436 kts 184°
2026-05-05 08:37 40.92948 -2.59455 34992 ft 436 kts 184°
2026-05-05 08:37 40.86895 -2.58910 34983 ft 436 kts 184°
2026-05-05 08:38 40.80837 -2.58363 34980 ft 436 kts 184°
2026-05-05 08:38 40.74778 -2.57818 34986 ft 436 kts 184°
2026-05-05 08:39 40.68765 -2.57278 34989 ft 436 kts 184°
2026-05-05 08:39 40.62715 -2.56736 34998 ft 436 kts 184°
2026-05-05 08:40 40.56663 -2.56196 34986 ft 436 kts 184°
2026-05-05 08:40 40.50608 -2.55655 34987 ft 435 kts 184°
2026-05-05 08:41 40.44562 -2.55116 34992 ft 435 kts 184°
2026-05-05 08:41 40.38530 -2.54707 34983 ft 427 kts 193°
2026-05-05 08:41 40.35689 -2.55514 35009 ft 411 kts 206°
2026-05-05 08:42 40.33007 -2.56737 34987 ft 413 kts 205°
2026-05-05 08:42 40.27612 -2.59319 34997 ft 412 kts 207°
2026-05-05 08:43 40.22248 -2.61981 34995 ft 412 kts 207°
2026-05-05 08:43 40.16892 -2.64662 34995 ft 412 kts 207°
2026-05-05 08:44 40.11535 -2.67342 34992 ft 411 kts 207°
2026-05-05 08:44 40.06225 -2.69994 35001 ft 411 kts 207°
2026-05-05 08:45 40.00883 -2.72658 34997 ft 411 kts 207°
2026-05-05 08:45 39.95548 -2.75314 35002 ft 410 kts 207°
2026-05-05 08:46 39.90211 -2.77966 34996 ft 409 kts 207°
2026-05-05 08:46 39.84892 -2.80605 35006 ft 410 kts 207°
2026-05-05 08:47 39.79590 -2.83231 34992 ft 410 kts 207°
2026-05-05 08:47 39.74251 -2.85871 35003 ft 410 kts 207°
2026-05-05 08:48 39.68915 -2.88507 35005 ft 410 kts 207°
2026-05-05 08:48 39.63581 -2.91135 35010 ft 410 kts 207°
2026-05-05 08:49 39.58242 -2.93765 35007 ft 410 kts 207°
2026-05-05 08:49 39.52916 -2.96390 35006 ft 409 kts 207°
2026-05-05 08:50 39.47588 -2.99010 35015 ft 409 kts 207°
2026-05-05 08:50 39.42293 -3.01611 35014 ft 409 kts 207°
2026-05-05 08:51 39.36958 -3.04217 35015 ft 409 kts 207°
2026-05-05 08:51 39.31624 -3.06815 35016 ft 409 kts 207°
2026-05-05 08:52 39.26290 -3.09411 35016 ft 410 kts 207°
2026-05-05 08:52 39.20948 -3.12006 35017 ft 410 kts 207°
2026-05-05 08:53 39.15597 -3.14600 35018 ft 410 kts 207°
2026-05-05 08:53 39.10259 -3.17184 35016 ft 409 kts 207°
2026-05-05 08:54 39.04922 -3.19764 35018 ft 410 kts 207°
2026-05-05 08:54 38.99617 -3.22323 35015 ft 409 kts 207°
2026-05-05 08:55 38.94278 -3.24895 35015 ft 409 kts 207°
2026-05-05 08:55 38.88941 -3.27460 35016 ft 409 kts 207°
2026-05-05 08:56 38.83605 -3.30022 35018 ft 409 kts 207°
2026-05-05 08:56 38.78267 -3.32580 35020 ft 409 kts 207°
2026-05-05 08:57 38.72931 -3.35133 35016 ft 409 kts 207°
2026-05-05 08:57 38.67596 -3.37682 35020 ft 408 kts 207°
2026-05-05 08:58 38.62266 -3.40224 35015 ft 408 kts 207°
2026-05-05 08:58 38.56978 -3.42742 35017 ft 408 kts 207°
2026-05-05 08:59 38.51652 -3.45275 35015 ft 409 kts 207°
2026-05-05 08:59 38.46313 -3.47809 35021 ft 409 kts 207°
2026-05-05 09:00 38.40969 -3.50342 35014 ft 409 kts 207°
2026-05-05 09:00 38.35626 -3.52870 35014 ft 409 kts 207°
2026-05-05 09:01 38.30288 -3.55391 35021 ft 408 kts 207°
2026-05-05 09:01 38.24997 -3.57888 35027 ft 408 kts 207°
2026-05-05 09:02 38.19633 -3.60414 35026 ft 409 kts 207°
2026-05-05 09:02 38.14943 -3.63991 35030 ft 389 kts 232°
2026-05-05 09:03 38.11657 -3.69451 35045 ft 389 kts 237°
2026-05-05 09:03 38.08544 -3.75067 35041 ft 389 kts 237°
2026-05-05 09:04 38.05992 -3.79775 35043 ft 389 kts 238°
2026-05-05 09:04 38.02936 -3.85448 35045 ft 389 kts 238°
2026-05-05 09:05 37.99390 -3.92033 35042 ft 388 kts 238°
2026-05-05 09:05 37.96834 -3.96768 35044 ft 389 kts 238°
2026-05-05 09:06 37.93798 -4.02387 35040 ft 389 kts 238°
2026-05-05 09:06 37.90740 -4.08036 35048 ft 388 kts 238°
2026-05-05 09:07 37.87677 -4.13685 35047 ft 389 kts 238°
2026-05-05 09:07 37.84613 -4.19325 35051 ft 389 kts 238°
2026-05-05 09:08 37.81547 -4.24961 34717 ft 385 kts 238°
2026-05-05 09:08 37.80030 -4.27745 34156 ft 382 kts 238°
2026-05-05 09:08 37.78537 -4.30482 33784 ft 375 kts 238°
2026-05-05 09:08 37.77070 -4.33171 33397 ft 370 kts 238°
2026-05-05 09:09 37.75587 -4.35888 32930 ft 381 kts 238°
2026-05-05 09:09 37.74085 -4.38636 32249 ft 386 kts 238°
2026-05-05 09:09 37.72553 -4.41437 31484 ft 388 kts 238°
2026-05-05 09:09 37.71012 -4.44251 30694 ft 392 kts 238°
2026-05-05 09:10 37.69454 -4.47094 29893 ft 394 kts 238°
2026-05-05 09:10 37.67890 -4.49944 29074 ft 395 kts 238°
2026-05-05 09:10 37.66322 -4.52801 28232 ft 396 kts 238°
2026-05-05 09:10 37.64743 -4.55678 27355 ft 403 kts 237°
2026-05-05 09:11 37.63061 -4.58555 26452 ft 413 kts 230°
2026-05-05 09:11 37.60979 -4.61109 25775 ft 420 kts 227°
2026-05-05 09:11 37.58862 -4.63682 25351 ft 424 kts 227°
2026-05-05 09:11 37.56725 -4.66258 24737 ft 425 kts 226°
2026-05-05 09:12 37.54592 -4.68820 24039 ft 422 kts 226°
2026-05-05 09:12 37.52473 -4.71362 23336 ft 419 kts 226°
2026-05-05 09:12 37.50378 -4.73873 22640 ft 414 kts 226°
2026-05-05 09:12 37.48299 -4.76361 21955 ft 411 kts 226°
2026-05-05 09:13 37.46235 -4.78830 21293 ft 407 kts 226°
2026-05-05 09:13 37.44206 -4.81256 20981 ft 396 kts 226°
2026-05-05 09:13 37.42265 -4.83574 20729 ft 384 kts 226°
2026-05-05 09:13 37.40355 -4.85854 20494 ft 373 kts 226°
2026-05-05 09:14 37.38500 -4.88065 20285 ft 362 kts 226°
2026-05-05 09:14 37.36699 -4.90211 20097 ft 351 kts 226°
2026-05-05 09:14 37.34951 -4.92293 19923 ft 341 kts 226°
2026-05-05 09:14 37.33255 -4.94312 19771 ft 333 kts 227°
2026-05-05 09:15 37.31540 -4.96352 19568 ft 344 kts 226°
2026-05-05 09:15 37.29781 -4.98443 19399 ft 350 kts 226°
2026-05-05 09:15 37.27993 -5.00556 19186 ft 355 kts 224°
2026-05-05 09:15 37.25862 -5.02134 18786 ft 362 kts 202°
2026-05-05 09:16 37.23341 -5.02556 18467 ft 374 kts 183°
2026-05-05 09:16 37.20739 -5.02415 18091 ft 373 kts 184°
2026-05-05 09:16 37.18174 -5.02353 17723 ft 372 kts 184°
2026-05-05 09:16 37.15590 -5.02304 17342 ft 369 kts 185°
2026-05-05 09:17 37.13027 -5.02263 16965 ft 367 kts 184°
2026-05-05 09:17 37.10477 -5.02224 16583 ft 366 kts 184°
2026-05-05 09:17 37.07934 -5.02188 16215 ft 364 kts 184°
2026-05-05 09:17 37.05417 -5.02153 15876 ft 360 kts 184°
2026-05-05 09:18 37.02904 -5.02117 15610 ft 362 kts 184°
2026-05-05 09:18 37.00380 -5.02082 15327 ft 363 kts 184°
2026-05-05 09:18 36.97871 -5.02045 15027 ft 365 kts 184°
2026-05-05 09:18 36.95327 -5.02005 14735 ft 365 kts 182°
2026-05-05 09:19 36.92823 -5.01368 14348 ft 374 kts 160°
2026-05-05 09:19 36.90721 -4.99444 14036 ft 380 kts 135°
2026-05-05 09:19 36.88953 -4.96953 13762 ft 382 kts 137°
2026-05-05 09:19 36.87137 -4.94595 13442 ft 381 kts 138°
2026-05-05 09:20 36.85293 -4.92232 13134 ft 379 kts 138°
2026-05-05 09:20 36.83447 -4.89887 12809 ft 376 kts 138°
2026-05-05 09:20 36.81609 -4.87568 12493 ft 375 kts 138°
2026-05-05 09:20 36.79748 -4.85304 12165 ft 371 kts 141°
2026-05-05 09:21 36.77844 -4.83157 11819 ft 366 kts 141°
2026-05-05 09:21 36.75978 -4.81039 11545 ft 359 kts 141°
2026-05-05 09:21 36.74150 -4.78959 11255 ft 353 kts 141°
2026-05-05 09:21 36.72354 -4.76912 10963 ft 347 kts 141°
2026-05-05 09:22 36.70588 -4.74903 10675 ft 341 kts 140°
2026-05-05 09:22 36.68847 -4.72922 10406 ft 335 kts 140°
2026-05-05 09:22 36.67138 -4.70976 10119 ft 331 kts 140°
2026-05-05 09:22 36.65477 -4.69089 9839 ft 322 kts 140°
2026-05-05 09:23 36.63859 -4.67250 9585 ft 307 kts 140°
2026-05-05 09:23 36.62305 -4.65493 9318 ft 295 kts 140°
2026-05-05 09:23 36.60820 -4.63812 9084 ft 283 kts 140°
2026-05-05 09:23 36.59389 -4.62197 8833 ft 274 kts 140°
2026-05-05 09:24 36.57989 -4.60618 8617 ft 270 kts 140°
2026-05-05 09:24 36.56596 -4.59046 8404 ft 267 kts 140°
2026-05-05 09:24 36.55243 -4.57521 8153 ft 264 kts 140°
2026-05-05 09:24 36.53930 -4.55962 7960 ft 260 kts 131°
2026-05-05 09:25 36.53119 -4.53961 7680 ft 260 kts 110°
2026-05-05 09:25 36.52525 -4.51836 7330 ft 259 kts 111°
2026-05-05 09:25 36.51930 -4.49720 6947 ft 260 kts 111°
2026-05-05 09:25 36.51337 -4.47598 6559 ft 258 kts 111°
2026-05-05 09:26 36.50757 -4.45510 6200 ft 252 kts 110°
2026-05-05 09:26 36.50194 -4.43486 5906 ft 244 kts 111°
2026-05-05 09:26 36.49639 -4.41485 5616 ft 245 kts 111°
2026-05-05 09:26 36.48900 -4.39617 5230 ft 240 kts 130°
2026-05-05 09:27 36.47817 -4.38056 4741 ft 238 kts 134°
2026-05-05 09:27 36.46736 -4.36528 4256 ft 238 kts 132°
2026-05-05 09:27 36.46036 -4.34669 3828 ft 243 kts 97°
2026-05-05 09:27 36.46296 -4.32657 3588 ft 233 kts 62°
2026-05-05 09:28 36.47256 -4.31159 3443 ft 212 kts 40°
2026-05-05 09:28 36.48299 -4.29967 3319 ft 196 kts 39°
2026-05-05 09:28 36.49292 -4.28857 3193 ft 190 kts 35°
2026-05-05 09:28 36.50466 -4.28261 3024 ft 179 kts 358°
2026-05-05 09:29 36.51620 -4.28631 2961 ft 171 kts 326°
2026-05-05 09:29 36.52606 -4.29463 3043 ft 172 kts 317°
2026-05-05 09:29 36.53481 -4.30461 3046 ft 170 kts 311°
2026-05-05 09:29 36.54302 -4.31513 3009 ft 169 kts 310°
2026-05-05 09:30 36.55102 -4.32595 2985 ft 170 kts 309°
2026-05-05 09:30 36.55892 -4.33685 2999 ft 169 kts 309°
2026-05-05 09:30 36.56673 -4.34772 2852 ft 170 kts 309°
2026-05-05 09:30 36.57458 -4.35869 2655 ft 169 kts 309°
2026-05-05 09:31 36.58240 -4.36964 2449 ft 170 kts 309°
2026-05-05 09:31 36.59027 -4.38062 2246 ft 170 kts 308°
2026-05-05 09:31 36.59810 -4.39158 2025 ft 169 kts 308°
2026-05-05 09:31 36.60592 -4.40253 1798 ft 170 kts 308°
2026-05-05 09:32 36.61372 -4.41344 1565 ft 164 kts 308°
2026-05-05 09:32 36.62082 -4.42340 1395 ft 147 kts 308°
2026-05-05 09:32 36.62761 -4.43287 1185 ft 146 kts 308°
2026-05-05 09:32 36.63424 -4.44228 963 ft 143 kts 307°
2026-05-05 09:33 36.64081 -4.45173 775 ft 146 kts 308°
2026-05-05 09:33 36.64749 -4.46111 591 ft 146 kts 309°
2026-05-05 09:33 36.65436 -4.47029 372 ft 144 kts 308°
2026-05-05 09:33 36.66122 -4.48003 212 ft 153 kts 309°
2026-05-05 09:34 36.66790 -4.48954 51 ft 138 kts 309°
2026-05-05 09:34 36.67306 -4.49680 47 ft 87 kts 312°
2026-05-05 09:34 36.67614 -4.50096 53 ft 55 kts 316°
2026-05-05 09:34 36.67794 -4.50223 53 ft 12 kts 342°
2026-05-05 09:35 36.67880 -4.50216 57 ft 13 kts 45°
2026-05-05 09:35 36.67807 -4.50054 53 ft 15 kts 136°
2026-05-05 09:35 36.67728 -4.49945 58 ft 18 kts 112°
2026-05-05 09:36 36.67773 -4.49842 55 ft 14 kts 38°
2026-05-05 09:36 36.67854 -4.49788 55 ft 4 kts 38°
2026-05-05 09:36 36.67874 -4.49755 54 ft 4 kts 73°
2026-05-05 09:36 36.67868 -4.49732 53 ft 3 kts 139°
2026-05-05 09:37 36.67822 -4.49687 47 ft 12 kts 134°
2026-05-05 09:37 36.67809 -4.49669 52 ft 0 kts 134°